This is the latest recevied weather packets stored in our database for station/object KE8AFF-13. If no packets are shown the sender has not sent any weather packets the latest 10 day(s).
| Time | Temp. | Humidity | Pressure | Rain* | Wind** | Luminosity | Snow |
|---|---|---|---|---|---|---|---|
| 1777987783 | 16.67° C | 78% | 1006.7 hPa | 0 mm | - | 373 W/m² | - |
| 1777987480 | 16.67° C | 79% | 1006.3 hPa | 0 mm | - | 362 W/m² | - |
| 1777987178 | 16.11° C | 80% | 1006.6 hPa | 0 mm | - | 344 W/m² | - |
| 1777986874 | 16.11° C | 80% | 1006.6 hPa | 0 mm | - | 367 W/m² | - |
| 1777986572 | 16.11° C | 80% | 1006.8 hPa | 0 mm | - | 359 W/m² | - |
| 1777986270 | 16.11° C | 81% | 1006.9 hPa | 0 mm | - | 363 W/m² | - |
| 1777985967 | 16.11° C | 81% | 1007 hPa | 0 mm | - | 321 W/m² | - |
| 1777985664 | 16.11° C | 82% | 1006.9 hPa | 0 mm | - | 304 W/m² | - |
| 1777985361 | 15.56° C | 82% | 1006.7 hPa | 0 mm | - | 306 W/m² | - |
| 1777985058 | 15.56° C | 84% | 1006.8 hPa | 0 mm | - | 246 W/m² | - |
| 1777984754 | 15.56° C | 84% | 1006.7 hPa | 0 mm | - | 122 W/m² | - |
| 1777984451 | 15.56° C | 84% | 1006.7 hPa | 0 mm | - | 121 W/m² | - |
| 1777984146 | 15.56° C | 84% | 1006.7 hPa | 0 mm | - | 136 W/m² | - |
| 1777983844 | 15.56° C | 84% | 1006.3 hPa | 0 mm | - | 153 W/m² | - |
| 1777983540 | 15° C | 84% | 1006.5 hPa | 0 mm | - | 142 W/m² | - |
| 1777983238 | 15° C | 84% | 1006.3 hPa | 0 mm | - | 153 W/m² | - |
| 1777982933 | 15° C | 85% | 1006.3 hPa | 0 mm | - | 103 W/m² | - |
| 1777982630 | 15° C | 85% | 1006.3 hPa | 0 mm | - | 83 W/m² | - |
| 1777982328 | 15° C | 85% | 1006.3 hPa | 0 mm | - | 65 W/m² | - |
| 1777982026 | 15° C | 85% | 1006 hPa | 0 mm | - | 47 W/m² | - |
| 1777981724 | 15° C | 85% | 1005.9 hPa | 0 mm | - | 37 W/m² | - |
| 1777981419 | 15° C | 85% | 1005.8 hPa | 0 mm | - | 32 W/m² | - |
| 1777981116 | 15° C | 85% | 1005.4 hPa | 0 mm | - | 29 W/m² | - |
| 1777980813 | 15° C | 85% | 1005 hPa | 0 mm | - | 29 W/m² | - |
| 1777980509 | 14.44° C | 86% | 1004.7 hPa | 0 mm | - | 23 W/m² | - |
* Rain latest hour (hover to see other rain measurements)
** Current wind speed in m/s (hover to see current wind gust speed)